Time,TemperatureF,DewpointF,PressureIn,WindDirection,WindDirectionDegrees,WindSpeedMPH,WindSpeedGustMPH,Humidity,HourlyPrecipIn,Conditions,Clouds,dailyrainin,SoftwareType,DateUTC
2013-02-02 00:08:00,17.5,7.0,30.16,NW,311,4.0,13.0,64,0.00,,,0.00,weatherlink.com 1.10,2013-02-02 05:08:00,
2013-02-02 00:23:00,16.9,6.0,30.16,West,264,3.0,7.0,63,0.00,,,0.00,weatherlink.com 1.10,2013-02-02 05:23:00,
2013-02-02 00:38:00,16.6,6.0,30.17,NNW,327,3.0,8.0,63,0.00,,,0.00,weatherlink.com 1.10,2013-02-02 05:38:00,
2013-02-02 00:54:00,16.2,6.0,30.18,WNW,291,2.0,6.0,64,0.00,,,0.00,weatherlink.com 1.10,2013-02-02 05:54:00,
2013-02-02 01:09:00,15.8,6.0,30.18,NW,305,1.0,6.0,64,0.00,,,0.00,weatherlink.com 1.10,2013-02-02 06:09:00,
2013-02-02 01:24:00,15.5,5.0,30.18,NW,314,1.0,6.0,64,0.00,,,0.00,weatherlink.com 1.10,2013-02-02 06:24:00,
2013-02-02 01:39:00,15.3,5.0,30.19,WNW,282,3.0,5.0,65,0.00,,,0.00,weatherlink.com 1.10,2013-02-02 06:39:00,
2013-02-02 01:54:00,15.3,5.0,30.19,NNE,21,6.0,7.0,64,0.00,,,0.00,weatherlink.com 1.10,2013-02-02 06:54:00,
2013-02-02 02:09:00,15.0,5.0,30.20,WSW,258,1.0,3.0,65,0.00,,,0.00,weatherlink.com 1.10,2013-02-02 07:09:00,
2013-02-02 02:24:00,14.7,5.0,30.20,West,259,1.0,3.0,66,0.00,,,0.00,weatherlink.com 1.10,2013-02-02 07:24:00,
2013-02-02 02:39:00,14.5,5.0,30.20,WSW,246,0.0,4.0,66,0.00,,,0.00,weatherlink.com 1.10,2013-02-02 07:39:00,
2013-02-02 02:54:00,14.1,5.0,30.21,WNW,294,1.0,2.0,67,0.00,,,0.00,weatherlink.com 1.10,2013-02-02 07:54:00,
2013-02-02 03:09:00,13.9,5.0,30.21,NW,312,0.0,3.0,67,0.00,,,0.00,weatherlink.com 1.10,2013-02-02 08:09:00,
2013-02-02 03:24:00,13.1,5.0,30.21,ESE,103,0.0,1.0,69,0.00,,,0.00,weatherlink.com 1.10,2013-02-02 08:24:00,
2013-02-02 03:39:00,11.8,5.0,30.21,ESE,103,0.0,0.0,73,0.00,,,0.00,weatherlink.com 1.10,2013-02-02 08:39:00,
2013-02-02 03:54:00,11.0,5.0,30.21,WNW,291,1.0,1.0,76,0.00,,,0.00,weatherlink.com 1.10,2013-02-02 08:54:00,
2013-02-02 04:09:00,11.1,5.0,30.22,WNW,291,0.0,0.0,77,0.00,,,0.00,weatherlink.com 1.10,2013-02-02 09:09:00,
2013-02-02 04:24:00,10.9,6.0,30.22,South,184,0.0,0.0,80,0.00,,,0.00,weatherlink.com 1.10,2013-02-02 09:24:00,
2013-02-02 04:39:00,11.0,6.0,30.22,South,184,0.0,0.0,81,0.00,,,0.00,weatherlink.com 1.10,2013-02-02 09:39:00,
2013-02-02 04:54:00,11.6,7.0,30.22,West,259,0.0,0.0,81,0.00,,,0.00,weatherlink.com 1.10,2013-02-02 09:54:00,
2013-02-02 05:09:00,11.6,6.0,30.20,West,262,0.0,0.0,79,0.00,,,0.00,weatherlink.com 1.10,2013-02-02 10:09:00,
2013-02-02 05:24:00,10.5,6.0,30.21,West,259,0.0,0.0,82,0.00,,,0.00,weatherlink.com 1.10,2013-02-02 10:24:00,
2013-02-02 05:40:00,9.4,5.0,30.21,West,262,0.0,0.0,83,0.00,,,0.00,weatherlink.com 1.10,2013-02-02 10:40:00,
2013-02-02 05:55:00,8.3,5.0,30.21,West,260,0.0,0.0,85,0.00,,,0.00,weatherlink.com 1.10,2013-02-02 10:55:00,
2013-02-02 06:09:00,7.2,4.0,30.21,West,262,0.0,0.0,86,0.00,,,0.00,weatherlink.com 1.10,2013-02-02 11:09:00,
2013-02-02 06:24:00,6.3,3.0,30.20,West,260,0.0,0.0,87,0.00,,,0.00,weatherlink.com 1.10,2013-02-02 11:24:00,
2013-02-02 06:40:00,6.0,4.0,30.21,West,260,0.0,0.0,89,0.00,,,0.00,weatherlink.com 1.10,2013-02-02 11:40:00,
2013-02-02 06:55:00,5.7,4.0,30.21,West,260,0.0,0.0,91,0.00,,,0.00,weatherlink.com 1.10,2013-02-02 11:55:00,
2013-02-02 07:10:00,5.7,3.0,30.21,West,262,0.0,0.0,90,0.00,,,0.00,weatherlink.com 1.10,2013-02-02 12:10:00,
2013-02-02 07:25:00,5.7,4.0,30.22,West,262,0.0,0.0,91,0.00,,,0.00,weatherlink.com 1.10,2013-02-02 12:25:00,
2013-02-02 07:40:00,7.2,5.0,30.21,West,262,0.0,0.0,92,0.00,,,0.00,weatherlink.com 1.10,2013-02-02 12:40:00,
2013-02-02 07:55:00,8.9,7.0,30.21,West,260,0.0,0.0,93,0.00,,,0.00,weatherlink.com 1.10,2013-02-02 12:55:00,
2013-02-02 08:10:00,10.5,9.0,30.21,West,262,0.0,0.0,92,0.00,,,0.00,weatherlink.com 1.10,2013-02-02 13:10:00,
2013-02-02 08:25:00,12.4,11.0,30.21,SW,225,0.0,0.0,93,0.00,,,0.00,weatherlink.com 1.10,2013-02-02 13:25:00,
2013-02-02 08:40:00,14.2,11.0,30.21,West,278,1.0,1.0,88,0.00,,,0.00,weatherlink.com 1.10,2013-02-02 13:40:00,
2013-02-02 08:55:00,15.5,11.0,30.21,SW,215,0.0,1.0,82,0.00,,,0.00,weatherlink.com 1.10,2013-02-02 13:55:00,
2013-02-02 09:10:00,16.0,11.0,30.21,WNW,284,0.0,1.0,79,0.00,,,0.00,weatherlink.com 1.10,2013-02-02 14:10:00,
2013-02-02 09:25:00,17.1,11.0,30.20,WNW,288,0.0,1.0,78,0.00,,,0.00,weatherlink.com 1.10,2013-02-02 14:25:00,
2013-02-02 09:40:00,18.3,12.0,30.20,ESE,117,1.0,3.0,75,0.00,,,0.00,weatherlink.com 1.10,2013-02-02 14:40:00,
2013-02-02 09:55:00,19.5,12.0,30.19,NE,53,0.0,3.0,73,0.00,,,0.00,weatherlink.com 1.10,2013-02-02 14:55:00,
2013-02-02 10:10:00,20.4,12.0,30.19,East,96,0.0,4.0,71,0.00,,,0.00,weatherlink.com 1.10,2013-02-02 15:10:00,
2013-02-02 10:25:00,21.7,13.0,30.18,North,352,1.0,2.0,70,0.00,,,0.00,weatherlink.com 1.10,2013-02-02 15:25:00,
2013-02-02 10:40:00,22.1,14.0,30.17,WNW,291,1.0,5.0,71,0.00,,,0.00,weatherlink.com 1.10,2013-02-02 15:40:00,
2013-02-02 10:55:00,23.0,14.0,30.17,SE,134,0.0,3.0,68,0.00,,,0.00,weatherlink.com 1.10,2013-02-02 15:55:00,
2013-02-02 11:10:00,23.2,13.0,30.16,SSE,158,0.0,2.0,66,0.00,,,0.00,weatherlink.com 1.10,2013-02-02 16:10:00,
2013-02-02 11:25:00,23.5,14.0,30.14,NE,53,0.0,2.0,67,0.00,,,0.00,weatherlink.com 1.10,2013-02-02 16:25:00,
2013-02-02 11:41:00,24.0,14.0,30.13,NE,53,0.0,3.0,66,0.00,,,0.00,weatherlink.com 1.10,2013-02-02 16:41:00,
2013-02-02 11:55:00,24.1,13.0,30.12,SE,128,2.0,4.0,64,0.00,,,0.00,weatherlink.com 1.10,2013-02-02 16:55:00,
2013-02-02 12:11:00,24.9,14.0,30.11,SE,141,1.0,2.0,63,0.00,,,0.00,weatherlink.com 1.10,2013-02-02 17:11:00,
2013-02-02 12:25:00,25.2,14.0,30.09,ESE,114,0.0,2.0,63,0.00,,,0.00,weatherlink.com 1.10,2013-02-02 17:25:00,
2013-02-02 12:40:00,24.8,13.0,30.09,SSE,159,1.0,3.0,61,0.00,,,0.00,weatherlink.com 1.10,2013-02-02 17:40:00,
2013-02-02 12:55:00,25.6,14.0,30.07,North,9,1.0,3.0,61,0.00,,,0.00,weatherlink.com 1.10,2013-02-02 17:55:00,
2013-02-02 13:10:00,25.9,13.0,30.07,WSW,245,0.0,5.0,59,0.00,,,0.00,weatherlink.com 1.10,2013-02-02 18:10:00,
2013-02-02 13:26:00,26.6,14.0,30.06,East,82,1.0,3.0,59,0.00,,,0.00,weatherlink.com 1.10,2013-02-02 18:26:00,
2013-02-02 13:41:00,26.8,14.0,30.05,East,82,1.0,4.0,59,0.00,,,0.00,weatherlink.com 1.10,2013-02-02 18:41:00,
2013-02-02 13:56:00,26.6,13.0,30.05,West,273,1.0,5.0,58,0.00,,,0.00,weatherlink.com 1.10,2013-02-02 18:56:00,
2013-02-02 14:11:00,26.8,13.0,30.04,SW,232,2.0,4.0,56,0.00,,,0.00,weatherlink.com 1.10,2013-02-02 19:11:00,
2013-02-02 14:26:00,27.1,14.0,30.04,SSW,198,0.0,5.0,57,0.00,,,0.00,weatherlink.com 1.10,2013-02-02 19:26:00,
2013-02-02 14:41:00,27.1,14.0,30.03,SW,218,1.0,5.0,58,0.00,,,0.00,weatherlink.com 1.10,2013-02-02 19:41:00,
2013-02-02 14:56:00,26.5,14.0,30.03,West,280,1.0,5.0,60,0.00,,,0.00,weatherlink.com 1.10,2013-02-02 19:56:00,
2013-02-02 15:11:00,25.9,14.0,30.03,East,98,1.0,7.0,60,0.00,,,0.00,weatherlink.com 1.10,2013-02-02 20:11:00,
2013-02-02 15:26:00,25.9,14.0,30.03,WSW,256,1.0,3.0,60,0.00,,,0.00,weatherlink.com 1.10,2013-02-02 20:26:00,
2013-02-02 15:41:00,25.3,14.0,30.02,ESE,115,3.0,5.0,62,0.00,,,0.00,weatherlink.com 1.10,2013-02-02 20:41:00,
2013-02-02 15:56:00,25.4,14.0,30.02,NNE,18,0.0,5.0,63,0.00,,,0.00,weatherlink.com 1.10,2013-02-02 20:56:00,
2013-02-02 16:11:00,24.8,15.0,30.02,SW,221,1.0,4.0,67,0.00,,,0.00,weatherlink.com 1.10,2013-02-02 21:11:00,
2013-02-02 16:26:00,24.7,16.0,30.02,SSW,207,0.0,3.0,69,0.00,,,0.00,weatherlink.com 1.10,2013-02-02 21:26:00,
2013-02-02 16:41:00,24.6,15.0,30.02,SSE,152,0.0,2.0,68,0.00,,,0.00,weatherlink.com 1.10,2013-02-02 21:41:00,
2013-02-02 16:56:00,24.3,16.0,30.02,NW,308,0.0,3.0,71,0.00,,,0.00,weatherlink.com 1.10,2013-02-02 21:56:00,
2013-02-02 17:11:00,23.6,17.0,30.02,WNW,287,1.0,4.0,75,0.00,,,0.00,weatherlink.com 1.10,2013-02-02 22:11:00,
2013-02-02 17:26:00,23.1,17.0,30.02,NW,325,1.0,3.0,76,0.00,,,0.00,weatherlink.com 1.10,2013-02-02 22:26:00,
2013-02-02 17:41:00,22.7,17.0,30.03,ENE,63,3.0,3.0,77,0.00,,,0.00,weatherlink.com 1.10,2013-02-02 22:41:00,
2013-02-02 17:56:00,22.4,16.0,30.03,NW,314,1.0,5.0,76,0.00,,,0.00,weatherlink.com 1.10,2013-02-02 22:56:00,
2013-02-02 18:11:00,21.9,16.0,30.03,NNW,331,1.0,5.0,77,0.00,,,0.00,weatherlink.com 1.10,2013-02-02 23:11:00,
2013-02-02 18:26:00,21.5,16.0,30.03,West,276,1.0,3.0,78,0.00,,,0.00,weatherlink.com 1.10,2013-02-02 23:26:00,
2013-02-02 18:41:00,21.2,15.0,30.04,West,280,0.0,3.0,78,0.00,,,0.00,weatherlink.com 1.10,2013-02-02 23:41:00,
2013-02-02 18:56:00,20.8,15.0,30.04,WNW,282,0.0,3.0,78,0.00,,,0.00,weatherlink.com 1.10,2013-02-02 23:56:00,
2013-02-02 19:11:00,20.5,15.0,30.04,NE,36,0.0,2.0,79,0.00,,,0.00,weatherlink.com 1.10,2013-02-03 00:11:00,
2013-02-02 19:26:00,20.0,15.0,30.04,NW,305,0.0,2.0,79,0.00,,,0.00,weatherlink.com 1.10,2013-02-03 00:26:00,
2013-02-02 19:41:00,19.4,14.0,30.04,WSW,256,0.0,0.0,80,0.00,,,0.00,weatherlink.com 1.10,2013-02-03 00:41:00,
2013-02-02 19:56:00,19.2,14.0,30.04,NNE,27,0.0,3.0,80,0.00,,,0.00,weatherlink.com 1.10,2013-02-03 00:56:00,
2013-02-02 20:11:00,18.6,14.0,30.05,SE,128,0.0,0.0,81,0.00,,,0.00,weatherlink.com 1.10,2013-02-03 01:11:00,
2013-02-02 20:26:00,17.8,13.0,30.05,SE,128,0.0,0.0,82,0.00,,,0.00,weatherlink.com 1.10,2013-02-03 01:26:00,
2013-02-02 20:41:00,17.5,14.0,30.06,SE,128,0.0,0.0,84,0.00,,,0.00,weatherlink.com 1.10,2013-02-03 01:41:00,
2013-02-02 20:56:00,17.8,14.0,30.06,SE,128,0.0,0.0,86,0.00,,,0.00,weatherlink.com 1.10,2013-02-03 01:56:00,
2013-02-02 21:11:00,18.0,15.0,30.05,SE,128,0.0,0.0,86,0.00,,,0.00,weatherlink.com 1.10,2013-02-03 02:11:00,
2013-02-02 21:26:00,18.4,15.0,30.06,SE,128,0.0,0.0,86,0.00,,,0.00,weatherlink.com 1.10,2013-02-03 02:26:00,
2013-02-02 21:41:00,18.4,15.0,30.06,SE,128,0.0,0.0,86,0.00,,,0.00,weatherlink.com 1.10,2013-02-03 02:41:00,
2013-02-02 21:56:00,18.6,15.0,30.05,SE,128,0.0,0.0,87,0.00,,,0.00,weatherlink.com 1.10,2013-02-03 02:56:00,
2013-02-02 22:11:00,18.7,15.0,30.05,SE,128,0.0,0.0,86,0.00,,,0.00,weatherlink.com 1.10,2013-02-03 03:11:00,
2013-02-02 22:26:00,18.8,15.0,30.05,SE,128,0.0,0.0,85,0.00,,,0.00,weatherlink.com 1.10,2013-02-03 03:26:00,
2013-02-02 22:41:00,18.9,15.0,30.05,SE,128,0.0,0.0,84,0.00,,,0.00,weatherlink.com 1.10,2013-02-03 03:41:00,
2013-02-02 22:56:00,18.9,15.0,30.05,SE,128,0.0,0.0,84,0.00,,,0.00,weatherlink.com 1.10,2013-02-03 03:56:00,
2013-02-02 23:11:00,18.9,15.0,30.05,SE,128,0.0,0.0,84,0.00,,,0.00,weatherlink.com 1.10,2013-02-03 04:11:00,
2013-02-02 23:26:00,18.8,15.0,30.05,SE,128,0.0,0.0,84,0.00,,,0.00,weatherlink.com 1.10,2013-02-03 04:26:00,
2013-02-02 23:41:00,18.8,15.0,30.05,SE,128,0.0,0.0,85,0.00,,,0.00,weatherlink.com 1.10,2013-02-03 04:41:00,
2013-02-02 23:56:00,18.8,15.0,30.05,SE,129,0.0,0.0,85,0.00,,,0.00,weatherlink.com 1.10,2013-02-03 04:56:00,